Temperature
8 8 8 8 8 8 8 7 7 7 7 7 7 7 7 7 7 7 7 7 7 7 7 7 7 7 7 7 7 7 7 6 6 6 7 7 6 7 7 6 6 6 6
8 8 8 8 8 7 7 7 7 7 7 7 7 7 7 7 7 6 6 6 6 6 6 6 6 6 6 6 6 6 6 6 6 6 6 6 6 6 6 6 6 6 6
8 8 7 7 7 7 7 7 7 7 6 6 6 6 6 6 6 6 6 6 6 6 6 6 6 6 6 6 6 6 6 5 5 5 5 6 6 6 6 6 5 5 5
7 7 7 7 7 7 7 7 7 6 6 6 6 6 6 6 6 6 6 6 6 6 6 6 5 5 5 5 5 5 5 5 5 5 5 5 5 5 5 5 5 5 5
7 7 7 7 7 6 6 6 6 6 6 6 6 6 5 5 5 5 5 5 5 5 5 5 5 5 5 5 5 5 5 4 4 4 4 4 4 4 4 4 4 4 4
7 7 7 6 6 6 6 6 6 6 6 6 5 5 5 5 5 5 5 5 5 5 5 5 5 5 5 5 4 4 4 4 4 4 4 4 4 4 3 3 3 3 3
6 6 6 6 6 6 6 6 6 5 5 5 5 5 5 5 5 5 5 4 4 5 5 4 4 4 4 4 4 4 4 4 3 3 3 3 3 3 3 2 2 2 2
6 6 6 5 5 5 5 5 5 5 5 5 5 5 5 5 5 4 4 4 4 4 4 4 4 4 4 4 4 4 3 3 3 3 3 3 2 2 2 2 1 1 2
5 5 5 5 5 5 5 5 5 4 4 4 4 4 4 4 4 4 4 4 4 4 4 3 3 3 3 3 3 3 3 3 3 2 2 2 2 2 1 1 1 1 1
5 4 4 4 4 4 4 4 4 4 4 4 4 4 4 4 4 4 3 3 3 3 3 3 3 3 3 3 3 3 3 3 2 2 2 2 1 1 1 1 0 -0 -0
4 4 4 4 3 3 3 3 3 3 3 3 3 3 3 4 3 3 3 3 3 3 3 3 3 3 2 2 2 2 2 2 2 1 1 1 1 1 1 0 -0 -1 -1
3 3 3 3 3 3 3 3 3 3 3 3 3 3 3 3 3 3 3 2 2 2 2 2 2 2 2 2 2 2 1 1 1 1 1 1 1 1 0 0 -0 -1 -1
3 3 3 3 3 2 2 2 2 2 2 2 3 3 3 3 3 3 2 2 2 2 2 2 2 1 1 1 1 1 1 0 0 0 0 0 0 -0 -0 -0 -1 -1 -1
2 2 2 2 2 2 2 2 2 2 2 2 2 2 3 3 3 2 2 2 2 1 1 1 1 1 1 0 0 0 0 0 -0 -0 -0 -0 -1 -1 -1 -1 -1 -2 -2
2 2 1 1 1 1 1 2 2 2 2 2 2 2 2 2 2 2 2 2 1 1 1 0 0 0 0 0 0 -0 -0 -0 -1 -1 -1 -1 -1 -1 -1 -2 -2 -2 -2
1 1 1 1 1 1 1 1 1 1 1 1 1 1 2 2 2 1 1 1 1 0 -0 -0 -0 -0 -0 -0 -0 -1 -1 -1 -1 -1 -1 -1 -1 -2 -2 -2 -2 -3 -3
1 1 1 0 0 1 1 1 1 1 1 1 1 1 1 1 1 1 1 0 0 -0 -1 -1 -0 -0 -0 -1 -1 -1 -1 -1 -1 -2 -2 -2 -2 -2 -3 -3 -3 -3 -3
0 0 0 -0 -0 0 0 0 0 0 0 1 1 1 1 1 0 0 0 -0 -1 -1 -1 -1 -0 -0 -1 -1 -1 -1 -1 -2 -2 -2 -2 -2 -3 -3 -3 -3 -3 -3 -3
-0 -0 -0 -0 -1 -1 -0 -0 -0 -0 -0 -0 0 0 0 0 -0 -0 -1 -1 -1 -1 -1 -1 -1 -1 -1 -1 -1 -1 -2 -2 -2 -2 -2 -3 -3 -3 -3 -3 -3 -4 -4
-1 -1 -1 -1 -1 -1 -1 -1 -1 -1 -1 -1 -1 -0 -0 -1 -1 -1 -1 -1 -1 -1 -1 -1 -1 -1 -1 -1 -2 -2 -2 -2 -2 -3 -3 -3 -3 -3 -4 -4 -4 -4 -4
-1 -1 -1 -1 -1 -1 -1 -1 -1 -1 -1 -1 -1 -1 -1 -1 -1 -1 -1 -1 -1 -1 -1 -1 -1 -1 -2 -2 -2 -2 -2 -2 -3 -3 -3 -3 -4 -4 -4 -4 -4 -4 -4
-2 -2 -2 -2 -2 -1 -1 -1 -1 -2 -1 -1 -1 -1 -1 -2 -2 -1 -1 -2 -1 -1 -2 -2 -2 -2 -2 -2 -2 -2 -2 -3 -3 -3 -3 -4 -4 -4 -4 -4 -4 -5 -5
-2 -2 -2 -2 -2 -2 -2 -2 -2 -2 -2 -2 -2 -2 -2 -2 -2 -2 -2 -2 -2 -2 -2 -2 -2 -2 -2 -2 -2 -3 -3 -3 -3 -3 -3 -4 -4 -4 -4 -4 -5 -5 -5
-2 -2 -2 -2 -2 -2 -2 -2 -2 -2 -2 -2 -2 -2 -2 -2 -2 -2 -2 -2 -2 -2 -2 -3 -3 -3 -3 -3 -3 -3 -3 -3 -3 -4 -4 -4 -4 -4 -5 -5 -5 -5 -5
-3 -3 -3 -3 -3 -3 -3 -3 -3 -2 -2 -2 -2 -2 -2 -2 -2 -2 -2 -2 -2 -3 -3 -3 -3 -3 -3 -3 -3 -3 -3 -4 -4 -4 -4 -4 -5 -5 -5 -5 -5 -5 -6
-3 -3 -3 -3 -3 -3 -3 -3 -3 -3 -2 -2 -2 -2 -2 -2 -2 -2 -3 -3 -3 -3 -3 -3 -3 -3 -3 -3 -3 -3 -4 -4 -4 -4 -4 -5 -5 -5 -5 -5 -6 -6 -6
Wind_Speed
6 6 6 6 6 5 5 6 6 5 5 5 5 5 5 5 5 4 4 4 4 4 4 4 5 4 3 3 3 3 4 4 5 3 2 2 2 3 3 4 5 6 6
6 6 6 6 6 6 6 6 6 6 5 6 6 6 6 6 5 5 6 5 5 5 5 5 5 3 4 4 3 4 4 4 4 4 2 2 3 3 3 3 4 5 5
5 6 6 6 6 7 7 7 6 6 6 5 6 6 7 6 6 6 6 6 6 6 5 5 5 5 5 4 4 4 3 3 2 3 3 2 2 2 3 3 3 3 5
5 6 7 7 7 8 7 7 6 6 6 6 6 7 7 6 6 6 6 6 6 6 5 5 5 5 5 5 4 4 3 3 2 2 3 2 2 2 1 2 3 3 4
5 6 8 7 7 6 7 7 6 6 7 6 6 7 6 6 6 6 6 6 6 5 5 5 5 6 7 6 4 4 4 3 3 3 3 2 2 2 2 2 3 4 4
5 7 7 6 6 6 7 7 6 6 6 6 6 7 7 6 9 11 8 6 6 6 6 5 5 6 7 8 8 7 7 5 5 4 3 4 4 3 2 2 2 3 3
6 7 6 6 6 7 6 6 6 7 6 6 7 7 7 8 11 12 11 7 6 6 6 5 5 5 6 4 5 5 5 6 6 5 5 5 4 4 3 3 3 3 4
6 6 6 6 6 6 6 6 7 6 6 7 7 7 7 9 12 12 11 7 6 6 6 6 6 5 5 5 4 3 3 3 4 3 4 4 3 3 3 3 3 3 3
6 6 6 6 6 6 6 7 6 6 6 7 6 7 8 9 11 12 10 5 5 6 6 6 6 6 8 8 5 4 3 2 2 3 3 3 3 2 1 1 0 1 3
7 7 6 6 6 7 7 7 5 6 7 7 7 7 8 8 11 12 11 5 6 5 4 5 9 9 10 9 6 6 5 4 3 2 1 1 1 1 1 1 2 2 2
7 6 6 6 6 7 6 5 6 6 6 6 7 7 7 9 10 12 11 6 6 6 5 5 5 9 10 10 8 6 7 5 4 3 2 2 1 1 1 1 2 2 3
6 6 6 6 6 5 5 6 5 5 6 6 6 6 6 7 9 10 12 11 9 6 6 5 5 8 9 9 7 7 7 5 3 3 3 2 2 2 1 1 2 3 3
6 7 7 6 6 5 6 6 5 5 6 6 6 6 6 5 6 11 12 12 12 7 5 8 8 8 8 6 7 8 6 4 4 3 3 3 2 2 1 1 2 2 3
7 7 6 6 6 6 5 6 6 6 6 6 6 6 6 5 5 5 5 6 8 7 5 7 8 8 6 6 5 4 4 4 4 4 3 2 2 1 1 1 2 2 2
7 7 6 6 6 6 6 6 7 8 8 8 7 7 6 7 8 10 7 6 6 6 5 3 3 4 4 4 4 4 3 3 3 3 3 3 2 2 2 1 2 2 2
7 7 6 6 6 6 6 6 9 10 12 13 13 10 8 10 10 11 12 11 11 10 7 5 6 6 6 6 5 5 4 4 4 4 3 3 3 3 2 2 2 2 3
8 8 6 6 6 6 6 6 6 6 9 12 13 13 12 11 11 12 12 12 12 11 7 6 6 6 6 6 5 5 5 4 4 4 4 4 3 3 3 3 2 3 3
8 9 8 7 7 7 6 6 6 6 6 5 7 11 11 11 11 11 11 9 7 8 5 6 6 6 6 6 5 5 5 4 4 4 4 4 4 3 3 3 3 3 3
8 7 7 6 7 7 6 6 6 6 6 5 4 5 8 9 9 10 10 6 6 6 6 6 6 5 5 5 5 5 5 5 5 5 5 5 4 4 4 4 3 4 3
8 10 9 7 6 6 6 6 6 6 6 6 6 5 4 4 4 5 6 5 6 6 6 6 6 6 6 6 6 5 5 5 6 5 5 5 4 4 4 4 4 3 3
7 8 9 7 6 7 6 7 7 7 7 7 6 7 8 6 6 6 6 6 7 7 6 6 6 6 6 6 6 6 7 6 6 6 5 5 5 4 4 4 3 3 3
6 7 6 7 7 6 7 6 6 7 7 7 6 6 11 6 5 6 6 6 6 5 5 6 6 6 6 7 7 7 7 7 6 6 6 5 5 4 4 4 3 3 3
6 7 7 7 6 8 8 6 6 7 7 7 6 5 6 6 6 6 6 5 5 5 5 5 5 5 5 5 6 7 7 7 7 7 6 6 5 5 5 4 4 3 3
7 7 7 7 6 6 6 7 7 7 7 7 6 6 6 6 6 6 5 5 4 4 5 5 6 7 8 6 6 6 7 7 7 7 8 7 6 5 5 4 4 3 3
6 7 7 6 6 7 6 6 6 6 6 6 6 6 5 5 5 5 5 5 5 5 6 6 5 7 9 9 8 7 9 11 10 8 7 6 6 6 5 4 3 3 3
7 7 7 6 6 6 6 6 7 6 6 6 5 5 5 5 5 5 5 5 5 5 5 5 6 8 8 8 9 10 11 12 12 11 8 5 6 5 5 4 4 3 3
Wind_Direction
240 237 238 240 238 236 239 243 242 244 241 244 245 244 248 252 250 250 252 249 246 248 242 233 232 220 221 222 219 217 218 214 240 264 255 274 263 270 287 283 278 274 278
244 239 239 239 238 240 244 244 241 243 244 243 245 243 243 243 239 237 242 241 239 242 242 238 239 227 221 221 217 219 220 215 223 253 270 271 267 269 277 284 294 289 286
248 242 243 241 240 242 245 244 240 239 244 245 241 241 242 240 237 234 233 235 235 236 234 231 234 223 226 224 219 221 224 227 219 237 262 272 278 282 299 300 301 296 298
253 246 246 244 241 243 243 242 240 237 239 244 244 241 240 238 236 232 230 232 234 235 233 230 228 222 225 220 219 216 212 215 217 229 256 271 274 281 286 295 306 308 308
255 251 251 250 247 244 244 243 241 239 239 240 244 241 237 235 235 228 227 229 231 236 237 231 229 226 224 218 214 207 202 210 212 229 249 266 269 272 269 274 290 306 304
256 256 257 255 252 249 247 244 241 240 239 238 241 238 235 237 239 235 229 227 229 231 237 237 235 232 233 233 227 216 202 202 210 219 237 240 252 255 260 269 291 305 297
260 262 260 254 252 251 248 245 242 242 242 243 244 237 238 240 242 241 235 225 226 229 228 228 237 234 227 221 227 228 226 224 215 208 219 235 239 236 234 253 260 272 273
264 263 260 255 254 254 247 246 245 242 242 244 246 239 238 243 242 243 238 229 228 229 225 220 223 227 219 205 198 203 217 229 226 219 218 232 235 227 218 234 247 275 287
271 268 265 256 255 254 251 250 246 242 245 243 244 239 239 247 242 239 230 220 227 230 226 220 217 222 223 212 197 199 212 231 235 214 221 231 239 237 201 161 255 300 295
273 269 265 259 255 254 252 249 247 242 245 245 247 240 237 244 244 236 225 215 221 227 226 225 227 225 221 214 199 194 209 216 192 181 204 246 235 229 232 199 197 241 275
273 269 264 259 255 253 252 249 248 247 247 246 248 245 239 240 243 236 225 211 214 219 222 223 224 221 221 218 211 203 210 201 183 186 194 198 199 213 238 218 207 214 240
275 271 268 264 260 257 249 253 249 243 246 249 250 252 245 240 237 232 226 222 213 212 219 216 214 215 217 216 215 209 206 202 182 182 194 207 218 236 241 240 238 238 240
278 273 270 269 262 252 245 249 251 241 241 247 244 249 252 239 234 231 227 224 219 217 217 211 208 213 213 214 211 205 201 193 185 197 210 222 220 222 237 270 282 279 284
274 275 271 267 267 260 250 242 242 240 240 242 241 244 248 243 232 223 218 220 219 217 209 206 207 211 205 196 198 203 201 194 194 203 202 204 198 206 224 233 257 284 295
269 271 268 262 260 260 254 243 239 239 235 234 237 234 233 242 236 221 212 212 205 200 180 176 185 187 194 195 194 196 195 192 201 192 189 196 203 216 232 230 242 264 269
270 269 265 262 260 257 258 267 249 244 250 243 237 234 236 236 236 228 222 218 212 198 186 193 202 204 207 206 204 203 201 201 198 195 196 199 206 220 233 238 244 253 267
261 265 265 259 257 255 250 251 269 269 254 246 241 237 236 235 232 228 222 215 210 199 201 205 209 209 209 206 203 202 203 197 189 194 201 203 206 215 227 237 247 262 273
262 262 261 257 253 251 246 243 244 253 265 266 248 238 235 232 228 222 215 205 207 203 205 211 214 210 206 204 202 200 196 189 190 197 201 201 203 211 224 235 243 253 267
264 264 259 255 251 248 244 241 242 243 247 253 260 249 233 228 225 217 205 206 205 209 209 212 212 206 203 202 198 194 193 194 194 196 201 202 203 206 220 230 240 251 262
263 261 260 258 251 247 242 239 240 241 242 240 240 239 218 206 214 212 208 205 208 212 210 211 209 204 199 198 193 191 193 195 194 200 202 202 203 205 215 224 232 242 253
264 263 257 257 250 246 243 239 238 238 237 238 239 230 215 213 215 214 213 212 213 213 211 209 206 202 198 195 192 193 195 198 197 197 198 200 200 204 211 219 230 241 251
257 258 254 253 252 247 245 239 237 238 237 236 239 233 225 221 214 216 217 217 215 212 205 203 205 203 199 196 194 194 196 197 196 195 195 196 198 203 207 214 224 236 240
255 256 257 255 252 253 252 241 237 239 238 232 228 226 220 218 218 218 218 214 209 206 200 199 202 201 198 196 195 194 196 198 196 190 190 194 197 202 207 211 214 222 235
251 253 254 254 252 248 246 245 241 239 237 232 228 224 221 218 217 216 214 207 203 200 197 198 202 199 193 192 195 196 198 194 185 186 185 189 194 199 203 205 210 216 226
249 251 251 250 250 250 248 245 242 239 235 232 227 222 219 218 217 212 206 201 199 201 200 199 197 195 194 194 194 195 195 189 183 181 183 186 191 194 195 195 200 205 216
251 251 251 248 247 247 245 243 242 237 234 231 225 220 214 213 212 207 201 200 199 199 199 200 196 194 193 194 194 194 192 190 187 184 180 182 186 188 185 190 194 201 207
Height
1478 1478 1477 1477 1476 1475 1474 1473 1472 1471 1471 1470 1470 1469 1469 1468 1468 1468 1468 1468 1467 1467 1467 1467 1467 1468 1468 1469 1469 1470 1470 1470 1469 1468 1469 1468 1468 1467 1466 1465 1464 1463 1461
1474 1474 1473 1472 1471 1470 1469 1469 1468 1467 1466 1466 1465 1465 1464 1464 1463 1463 1463 1463 1463 1463 1463 1463 1463 1463 1463 1464 1464 1465 1465 1465 1465 1464 1463 1463 1463 1462 1461 1460 1459 1458 1456
1470 1469 1468 1467 1466 1465 1465 1464 1463 1462 1462 1461 1460 1460 1459 1459 1459 1459 1458 1458 1458 1458 1458 1458 1459 1459 1459 1460 1460 1460 1460 1460 1460 1460 1459 1458 1457 1457 1456 1455 1454 1453 1452
1465 1464 1463 1462 1462 1461 1460 1459 1458 1457 1457 1456 1455 1455 1454 1454 1454 1454 1454 1454 1454 1454 1454 1454 1454 1454 1455 1455 1455 1455 1455 1456 1456 1455 1454 1453 1453 1452 1451 1450 1448 1448 1447
1460 1459 1458 1457 1457 1455 1454 1453 1453 1452 1451 1451 1450 1449 1449 1449 1449 1449 1449 1449 1449 1449 1449 1449 1449 1450 1450 1450 1451 1451 1451 1451 1451 1450 1450 1449 1448 1447 1446 1445 1444 1443 1442
1455 1454 1453 1452 1451 1450 1449 1448 1447 1446 1445 1445 1444 1444 1444 1444 1444 1444 1444 1444 1444 1444 1443 1444 1444 1444 1445 1445 1446 1446 1446 1446 1445 1446 1445 1444 1443 1443 1442 1441 1440 1438 1436
1450 1449 1448 1446 1445 1444 1443 1442 1441 1440 1440 1439 1438 1438 1438 1438 1439 1439 1439 1438 1438 1438 1438 1439 1439 1439 1440 1440 1440 1440 1441 1441 1442 1441 1440 1439 1439 1438 1438 1436 1436 1434 1433
1445 1443 1442 1441 1440 1439 1437 1436 1435 1434 1434 1433 1432 1432 1432 1432 1433 1433 1433 1433 1432 1433 1433 1433 1434 1434 1434 1435 1435 1435 1436 1436 1436 1436 1436 1435 1435 1434 1433 1433 1431 1430 1429
1439 1438 1436 1435 1434 1433 1432 1431 1430 1429 1428 1427 1427 1426 1426 1426 1427 1427 1427 1427 1427 1427 1428 1428 1428 1429 1430 1430 1430 1430 1430 1431 1431 1431 1431 1430 1430 1429 1429 1428 1427 1425 1423
1434 1432 1431 1430 1428 1427 1426 1425 1424 1423 1422 1421 1420 1420 1420 1420 1420 1421 1421 1421 1421 1421 1422 1422 1423 1424 1424 1425 1425 1425 1425 1425 1426 1426 1426 1426 1425 1425 1424 1424 1423 1422 1420
1428 1427 1425 1424 1422 1421 1420 1419 1419 1417 1416 1415 1415 1414 1414 1414 1414 1414 1415 1415 1415 1416 1416 1417 1418 1418 1419 1419 1420 1420 1420 1421 1421 1421 1421 1421 1421 1420 1420 1419 1419 1418 1417
1423 1421 1419 1418 1416 1415 1414 1413 1412 1411 1410 1409 1408 1408 1408 1408 1408 1408 1409 1409 1410 1410 1411 1412 1412 1413 1414 1414 1415 1415 1416 1416 1416 1416 1416 1416 1416 1416 1415 1415 1414 1414 1413
1416 1414 1413 1411 1410 1409 1408 1407 1406 1405 1404 1403 1403 1402 1401 1402 1402 1403 1403 1404 1404 1404 1405 1406 1407 1408 1408 1409 1410 1410 1411 1411 1411 1411 1411 1411 1412 1412 1411 1410 1410 1409 1408
1410 1408 1406 1405 1403 1403 1402 1401 1400 1399 1398 1397 1397 1396 1396 1396 1396 1396 1397 1398 1398 1399 1400 1401 1402 1402 1403 1404 1405 1405 1406 1406 1406 1407 1407 1407 1407 1407 1407 1406 1405 1404 1403
1404 1402 1400 1399 1397 1396 1395 1394 1393 1393 1393 1392 1391 1391 1391 1390 1390 1391 1391 1392 1393 1394 1395 1395 1396 1397 1398 1398 1399 1400 1401 1401 1402 1402 1402 1403 1403 1403 1402 1402 1401 1400 1399
1397 1395 1394 1392 1390 1389 1388 1387 1386 1387 1386 1386 1386 1386 1385 1385 1385 1385 1386 1387 1388 1388 1389 1389 1390 1391 1392 1393 1394 1395 1396 1397 1397 1398 1398 1399 1399 1399 1398 1398 1397 1396 1395
1391 1389 1387 1385 1384 1383 1381 1380 1379 1379 1379 1379 1379 1379 1379 1379 1379 1380 1380 1381 1382 1383 1383 1383 1385 1386 1387 1388 1389 1390 1391 1392 1393 1394 1394 1394 1395 1395 1394 1394 1393 1392 1391
1384 1382 1380 1378 1377 1376 1375 1374 1373 1372 1372 1371 1372 1373 1373 1373 1374 1374 1375 1376 1376 1377 1378 1378 1379 1381 1382 1383 1384 1385 1387 1388 1388 1389 1390 1390 1391 1391 1391 1390 1390 1389 1388
1376 1374 1373 1371 1370 1369 1368 1368 1367 1366 1366 1365 1366 1366 1367 1367 1368 1369 1369 1370 1370 1371 1372 1373 1375 1376 1377 1378 1379 1381 1382 1383 1384 1385 1386 1386 1386 1387 1387 1387 1386 1385 1384
1369 1367 1366 1364 1363 1362 1361 1361 1360 1360 1359 1359 1359 1360 1361 1361 1361 1362 1363 1364 1365 1366 1367 1368 1370 1371 1372 1373 1375 1376 1377 1378 1379 1380 1381 1382 1382 1383 1383 1383 1382 1381 1381
1361 1359 1358 1357 1356 1355 1354 1354 1353 1353 1353 1353 1353 1354 1355 1355 1355 1356 1357 1358 1359 1360 1362 1363 1364 1366 1367 1368 1370 1371 1372 1373 1375 1376 1377 1378 1378 1379 1379 1379 1379 1378 1377
1353 1352 1351 1349 1348 1348 1347 1347 1346 1346 1346 1346 1347 1348 1349 1349 1350 1351 1352 1353 1354 1355 1357 1358 1359 1361 1362 1363 1365 1366 1367 1369 1370 1371 1372 1373 1374 1375 1375 1375 1375 1375 1374
1346 1345 1343 1342 1341 1341 1340 1340 1340 1340 1340 1340 1341 1341 1342 1343 1344 1345 1346 1347 1349 1350 1351 1353 1354 1355 1357 1358 1360 1361 1363 1364 1365 1367 1368 1369 1370 1370 1371 1371 1371 1371 1371
1339 1338 1336 1335 1334 1334 1333 1333 1333 1333 1334 1334 1334 1335 1336 1337 1338 1340 1341 1342 1343 1344 1346 1347 1349 1350 1352 1353 1355 1356 1358 1360 1361 1362 1364 1365 1366 1366 1367 1368 1368 1368 1368
1332 1331 1330 1329 1328 1328 1327 1327 1327 1327 1327 1328 1329 1330 1331 1332 1333 1334 1336 1337 1338 1339 1340 1342 1343 1345 1346 1348 1350 1351 1353 1355 1356 1358 1359 1361 1362 1363 1363 1364 1364 1365 1364
1325 1324 1323 1322 1322 1321 1321 1321 1321 1321 1322 1322 1323 1324 1325 1327 1328 1329 1330 1332 1333 1334 1336 1337 1338 1340 1342 1343 1345 1347 1349 1351 1352 1354 1355 1356 1358 1359 1360 1361 1361 1361 1362